Total_Precipitation_Accumulation
0.92 0.96 0.97 0.98 1.00 0.92 0.85 0.84 0.85 0.82 0.81 0.84 0.87 0.91 0.92 0.93 0.94 0.92 0.88 0.85 0.85 0.85 0.85 0.86 0.87 0.86 0.87 0.88 0.89 0.93 0.98 1.04 1.04 0.78 0.62 0.62 0.65 0.62 0.60 0.52 0.46 0.43 0.41
0.80 0.88 0.86 0.88 0.97 0.93 0.86 0.81 0.80 0.77 0.70 0.70 0.73 0.75 0.76 0.76 0.77 0.79 0.78 0.76 0.75 0.73 0.74 0.77 0.78 0.80 0.82 0.84 0.89 0.94 0.95 0.97 1.00 0.88 0.69 0.60 0.59 0.56 0.53 0.48 0.41 0.35 0.31
0.67 0.71 0.71 0.73 0.79 0.82 0.84 0.83 0.79 0.78 0.71 0.63 0.60 0.62 0.62 0.63 0.63 0.65 0.66 0.66 0.67 0.67 0.66 0.69 0.71 0.77 0.82 0.81 0.83 0.85 0.85 0.85 0.87 0.85 0.70 0.56 0.50 0.46 0.45 0.40 0.34 0.30 0.26
0.49 0.51 0.51 0.56 0.60 0.61 0.63 0.67 0.68 0.67 0.65 0.60 0.55 0.53 0.52 0.55 0.59 0.60 0.61 0.62 0.64 0.64 0.65 0.67 0.68 0.71 0.73 0.76 0.79 0.80 0.79 0.78 0.78 0.80 0.74 0.64 0.56 0.50 0.50 0.46 0.39 0.32 0.28
0.44 0.43 0.44 0.45 0.47 0.48 0.48 0.47 0.48 0.50 0.52 0.53 0.52 0.52 0.50 0.49 0.52 0.55 0.59 0.61 0.63 0.65 0.66 0.67 0.69 0.74 0.75 0.74 0.73 0.72 0.72 0.75 0.78 0.83 0.79 0.66 0.53 0.48 0.46 0.41 0.39 0.37 0.35
0.38 0.39 0.40 0.40 0.40 0.40 0.40 0.39 0.37 0.39 0.42 0.46 0.50 0.54 0.58 0.59 0.71 0.67 0.61 0.63 0.66 0.67 0.65 0.63 0.62 0.65 0.64 0.64 0.63 0.62 0.66 0.73 0.82 0.85 0.74 0.57 0.42 0.36 0.36 0.41 0.45 0.49 0.42
0.29 0.29 0.30 0.31 0.34 0.35 0.37 0.40 0.45 0.49 0.50 0.54 0.59 0.63 0.67 0.74 0.82 0.74 0.70 0.62 0.63 0.65 0.62 0.57 0.53 0.51 0.52 0.45 0.47 0.51 0.53 0.60 0.62 0.56 0.48 0.41 0.36 0.34 0.42 0.51 0.49 0.46 0.34
0.35 0.33 0.30 0.31 0.37 0.43 0.49 0.55 0.64 0.71 0.74 0.78 0.81 0.82 0.82 0.82 0.80 0.71 0.68 0.59 0.57 0.53 0.48 0.43 0.40 0.36 0.34 0.35 0.37 0.45 0.44 0.42 0.40 0.37 0.34 0.32 0.31 0.33 0.41 0.50 0.51 0.49 0.38
0.41 0.44 0.44 0.47 0.54 0.60 0.69 0.77 0.80 0.86 0.86 0.83 0.80 0.79 0.75 0.70 0.65 0.55 0.47 0.41 0.42 0.41 0.36 0.33 0.33 0.31 0.35 0.41 0.41 0.43 0.34 0.29 0.32 0.36 0.38 0.37 0.37 0.36 0.37 0.48 0.57 0.61 0.51
0.50 0.57 0.58 0.60 0.63 0.65 0.66 0.68 0.68 0.67 0.65 0.59 0.55 0.52 0.48 0.45 0.43 0.38 0.34 0.30 0.28 0.27 0.27 0.27 0.31 0.31 0.38 0.44 0.41 0.36 0.30 0.26 0.28 0.31 0.35 0.36 0.35 0.36 0.40 0.41 0.54 0.74 0.62
0.60 0.64 0.65 0.62 0.59 0.55 0.49 0.42 0.40 0.37 0.33 0.30 0.27 0.25 0.23 0.21 0.22 0.23 0.24 0.23 0.23 0.23 0.22 0.23 0.25 0.35 0.41 0.43 0.37 0.30 0.30 0.33 0.30 0.29 0.30 0.32 0.33 0.35 0.37 0.35 0.40 0.70 0.87
0.46 0.43 0.39 0.34 0.30 0.27 0.24 0.21 0.20 0.18 0.17 0.16 0.14 0.13 0.12 0.11 0.12 0.14 0.17 0.20 0.23 0.22 0.20 0.20 0.23 0.35 0.37 0.35 0.33 0.32 0.35 0.34 0.28 0.31 0.34 0.33 0.31 0.30 0.29 0.31 0.32 0.37 0.50
0.17 0.14 0.13 0.12 0.11 0.11 0.11 0.11 0.10 0.10 0.10 0.10 0.10 0.09 0.09 0.10 0.12 0.16 0.18 0.21 0.25 0.25 0.22 0.24 0.28 0.30 0.29 0.29 0.32 0.35 0.34 0.30 0.29 0.32 0.32 0.31 0.29 0.29 0.31 0.35 0.37 0.36 0.35
0.06 0.06 0.07 0.07 0.07 0.07 0.07 0.07 0.07 0.08 0.08 0.09 0.10 0.11 0.11 0.12 0.13 0.16 0.20 0.22 0.25 0.27 0.26 0.26 0.25 0.25 0.26 0.27 0.29 0.31 0.32 0.32 0.34 0.36 0.33 0.30 0.31 0.34 0.36 0.38 0.42 0.42 0.44
0.06 0.07 0.08 0.09 0.10 0.11 0.11 0.11 0.12 0.12 0.14 0.15 0.14 0.15 0.16 0.16 0.16 0.23 0.27 0.27 0.30 0.32 0.34 0.29 0.27 0.26 0.25 0.24 0.25 0.27 0.29 0.32 0.36 0.36 0.38 0.39 0.38 0.37 0.36 0.36 0.41 0.47 0.50
0.09 0.09 0.10 0.11 0.12 0.12 0.13 0.13 0.15 0.15 0.17 0.18 0.18 0.18 0.17 0.18 0.22 0.27 0.29 0.31 0.34 0.40 0.42 0.33 0.27 0.25 0.25 0.24 0.25 0.28 0.30 0.33 0.37 0.42 0.44 0.46 0.48 0.46 0.42 0.37 0.38 0.46 0.48
0.11 0.13 0.14 0.15 0.15 0.16 0.17 0.17 0.17 0.19 0.21 0.21 0.20 0.20 0.20 0.22 0.26 0.28 0.31 0.33 0.35 0.41 0.40 0.30 0.24 0.22 0.23 0.25 0.29 0.32 0.33 0.34 0.40 0.48 0.53 0.55 0.57 0.53 0.50 0.46 0.42 0.44 0.43
0.12 0.14 0.16 0.15 0.16 0.18 0.19 0.19 0.19 0.20 0.20 0.18 0.20 0.25 0.26 0.28 0.30 0.32 0.36 0.41 0.38 0.35 0.30 0.25 0.23 0.23 0.25 0.29 0.33 0.36 0.39 0.41 0.44 0.48 0.51 0.56 0.62 0.63 0.57 0.51 0.49 0.50 0.51
0.12 0.13 0.15 0.15 0.16 0.18 0.19 0.21 0.20 0.20 0.20 0.20 0.21 0.24 0.31 0.35 0.37 0.37 0.39 0.38 0.32 0.26 0.22 0.22 0.24 0.28 0.33 0.36 0.39 0.41 0.45 0.47 0.47 0.50 0.52 0.55 0.62 0.69 0.61 0.52 0.53 0.51 0.55
0.11 0.16 0.19 0.18 0.18 0.19 0.19 0.20 0.20 0.20 0.20 0.19 0.20 0.22 0.31 0.41 0.37 0.32 0.31 0.30 0.27 0.24 0.23 0.26 0.30 0.35 0.42 0.46 0.47 0.48 0.49 0.46 0.47 0.51 0.52 0.54 0.58 0.67 0.67 0.59 0.57 0.58 0.55
0.12 0.16 0.21 0.19 0.16 0.17 0.19 0.21 0.22 0.22 0.21 0.19 0.17 0.22 0.36 0.39 0.34 0.29 0.28 0.29 0.30 0.29 0.29 0.32 0.35 0.40 0.46 0.50 0.52 0.50 0.49 0.45 0.46 0.53 0.56 0.56 0.59 0.61 0.59 0.61 0.61 0.62 0.63
0.12 0.14 0.16 0.17 0.17 0.19 0.23 0.23 0.24 0.23 0.21 0.20 0.18 0.22 0.32 0.32 0.26 0.25 0.25 0.26 0.28 0.31 0.34 0.39 0.41 0.41 0.49 0.58 0.62 0.62 0.53 0.44 0.43 0.52 0.58 0.57 0.59 0.62 0.65 0.69 0.68 0.66 0.63
0.13 0.15 0.16 0.16 0.18 0.21 0.23 0.20 0.21 0.21 0.21 0.21 0.21 0.22 0.25 0.26 0.23 0.22 0.23 0.24 0.27 0.30 0.33 0.39 0.43 0.40 0.41 0.51 0.61 0.77 0.78 0.61 0.53 0.64 0.83 0.84 0.79 0.77 0.77 0.74 0.66 0.63 0.56
0.12 0.14 0.16 0.17 0.19 0.20 0.21 0.20 0.20 0.20 0.21 0.22 0.22 0.23 0.23 0.25 0.25 0.24 0.25 0.27 0.28 0.30 0.32 0.38 0.42 0.41 0.42 0.50 0.57 0.63 0.70 0.79 1.00 1.15 1.24 1.27 1.04 0.83 0.75 0.70 0.63 0.60 0.57
0.12 0.14 0.17 0.19 0.21 0.22 0.23 0.22 0.21 0.21 0.22 0.22 0.23 0.23 0.24 0.24 0.24 0.25 0.25 0.27 0.29 0.30 0.30 0.34 0.40 0.43 0.44 0.47 0.52 0.55 0.60 0.78 1.07 1.23 1.18 1.07 0.90 0.76 0.73 0.70 0.63 0.61 0.58
0.14 0.16 0.19 0.21 0.22 0.23 0.23 0.22 0.21 0.22 0.23 0.22 0.23 0.23 0.24 0.24 0.23 0.23 0.24 0.26 0.27 0.28 0.28 0.30 0.34 0.40 0.43 0.43 0.41 0.47 0.62 0.72 0.74 0.76 0.92 1.00 0.90 0.75 0.73 0.76 0.69 0.64 0.61